Location: Stara Lesna
(49.1528°N, 20.2911°E)
Time: 18:08:46
(UTC+02:00)

Cosmos 1066 Rocket - Pass Details

Date: 13 July 2020
Orbit: 799 x 894 km, 81.2° (Epoch: 11 August)

Event Time Altitude Azimuth Distance (km) Brightness Sun altitude
Rises 03:17:12 0° 347° (NNW) 3,510 8.1 -11.4°
Reaches altitude 10° 03:19:40 10° 348° (NNW) 2,571 7.3 -11.1°
Maximum altitude 03:25:33 89° 261° (W) 902 4.3 -10.5°
Drops below altitude 10° 03:31:24 10° 171° (S) 2,551 6.3 -10.0°
Sets 03:33:50 0° 171° (S) 3,480 7.0 -9.7°
